NIMBUS 2 DEB, 40648

Orbit data source: Space-Track

NIMBUS 2 DEB, 40648 is space debris in SSO originally from a launch on Sun, 15 May 1966 UTC launched from the Air Force Western Test Range (AFWTR). Debris objects in space refer to the collection of defunct objects orbiting the Earth. Examples of debris include non-operational satellites, rocket bodies, and fragments generated from explosions, collisions, or faulty payload assembly.

Loading next visibility...
Identifier
40648, 1966-040BM
Orbit
SSO
Country
Flag of USUS
Related business
Manufacturer
Unknown
Mission
Spacecraft
Bus & Motor
Unknown
Mass
Unknown
Launch date (UTC)
1966-05-15 (60 years ago)
Launch vehicle
Unknown
Launch site
Air Force Western Test Range (AFWTR)
Object type
Payload
Rocket body
Debris
Shape & HBR
Unknown shape, 0.1 m
Radar Cross Section
Small (<0.1 m²)

Expand to show TLE details & history
Last TLE update: 12 hours ago

TLE from 12 hours ago
0 NIMBUS 2 DEB
1 40648U 66040BM  26125.44840926  .00002693  00000-0  43068-2 0  9994
2 40648 100.2061 315.4465 0037884 225.7093 134.0930 13.49725777537287
Epoch: 2026-05-05T10:45Z
TLE epoch observation values (Epoch: 2026-05-05T10:45:42.560Z)
Latitude
0.00001°
Longitude
-69.30394°
Altitude
1,095.736 km
Speed
7.295 km/s
True Right ascension
21h 01m 47s
True Declination
0° 00' 00"
Sunlit
Object was in daylight at epoch
Visualization orbit readout
Latitude
Unknown
Longitude
Unknown
Altitude
Unknown
Speed
Unknown
Apparent Right ascension
Unknown
Apparent Declination
Unknown
Sunlit
N/A
Visualization observer readout
Local Sidereal Time
06:45:05
Azimuth
Unknown
Elevation
Unknown
Doppler factor
Unknown
Orbital elements
Apogee altitude
1,098.815 km
Perigee altitude
1,042.377 km
Semi-major axis
7,448.733 km
Eccentricity
0.00379
Inclination
100.2061°
RAAN
315.4465°
Arg. of periapsis
225.7093°
True anomaly
134.40376°
Mean anomaly
134.093°
Eccentric anomaly
134.24848°
Mean motion
3.37613 °/min
Orbital period
106.63 mins
BSTAR
0.0043068
Loading maneuver chart data...
Computing Atmospheric mass density...
Loading historical data...
Loading historical data...
Loading historical data...
Loading historical data...
Loading historical data...
Loading historical data...
Loading historical data...

Documentation

Showing up to 5 results
|